DECAYED

STARLINK-4671, 53593 (Decayed)

Orbit data source: Space-Track

STARLINK-4671, 53593 was a payload satellite owned by SpaceX/Seattle (US) in LEO that was launched on Sun, 28 Aug 2022 UTC via an FALCON 9 launch vehicle from the Air Force Eastern Test Range (AFETR). Payload-class satellites include a variety of spacecraft equipped with specific instruments for various scientific and technological missions. These include communications satellites like Starlink; space stations such as the ISS; scientific satellites like the Hubble; Earth observation satellites from companies like Planet Labs, Umbra, and HawkEye 360; GPS; miniature CubeSats for education and research; and military/defense satellites.

Not visible in the next 10 days
Identifier
53593, 2022-104F
Orbit
Decayed
Country
Flag of USUS
Related business
Manufacturer
SpaceX/Seattle
Mission
Decayed Commercial Communications
Bus & Motor
STARLINK, Unknown motor
Mass
300 kg wet, ~290 kg dry
Launch date (UTC)
2022-08-28 (4 years ago)
Launch vehicle
FALCON 9
Launch site
Air Force Eastern Test Range (AFETR)
Object type
Payload
Rocket body
Debris
Shape & HBR
Box + 1 Pan, 10.1 m
Radar Cross Section
13.562 m², Large (>1 m²)

Expand to show TLE details & history
Last TLE update: 11 months ago

TLE from 11 months ago
0 STARLINK-4671
1 53593U 22104F   25190.23084065  .10959571  12263-4  11699-2 0  9992
2 53593  53.1528 177.8612 0003346 270.5792 186.6965 16.36747316159270
Epoch: 2025-07-09T05:32Z
TLE epoch observation values (Epoch: 2025-07-09T05:32:24.632Z)
Latitude
52.70006°
Longitude
-90.63055°
Altitude
183.03 km
Speed
7.802 km/s
True Right ascension
18h 39m 32s
True Declination
52° 31' 10"
Sunlit
Object was in full shadow at epoch
Visualization orbit readout
Latitude
Unknown
Longitude
Unknown
Altitude
Unknown
Speed
Unknown
Apparent Right ascension
Unknown
Apparent Declination
Unknown
Sunlit
N/A
Visualization observer readout
Local Sidereal Time
21:41:45
Azimuth
Unknown
Elevation
Unknown
Doppler factor
Unknown
Orbital elements
Apogee altitude
176.931 km
Perigee altitude
172.546 km
Semi-major axis
6,552.875 km
Eccentricity
0.00033
Inclination
53.1528°
RAAN
177.8612°
Arg. of periapsis
270.5792°
True anomaly
186.69203°
Mean anomaly
186.6965°
Eccentric anomaly
186.69427°
Mean motion
4.09162 °/min
Orbital period
87.98 mins
BSTAR
0.0011699
Loading maneuver chart data...
Computing Atmospheric mass density...
Loading historical data...
Loading historical data...
Loading historical data...
Loading historical data...
Loading historical data...
Loading historical data...
Loading historical data...

Documentation

Showing up to 5 results
|